星链-37172(STARLINK-37172)

导读

STARLINK-37172(NORAD编号68395)是SpaceX星链星座的一员,属于第二代星链卫星,旨在近地轨道提供全球宽带互联网服务。星链卫星配备氩气离子推进系统、双太阳能阵列和相控阵天线,可实现灵活轨道机动与高带宽通信。近期该卫星曾出现轨道异常,曾因内部能源问题出现解体风险,产生少量轨道碎片,不过碎片预计会在数周内再入大气层烧毁,不会对太空环境造成长期影响,SpaceX目前正对事故原因展开调查。

Basic Information
目录编号:
68395
目录名称:
STARLINK-37172
国际标识:
2026-063R
轨道中心:
EARTH
卫星名称:
星链-37172
卫星全名:
星链-37172(STARLINK-37172)
卫星状态:
在轨 (已飞行169 天)
发射日期:
2026-03-26 UTC
国别 :
美国 (US)
星等 :
--
This satellite is enrolled in the Space Conjunction Data Service (SCDS) and the current flight risk assessment level is: No High Risk
Orbit Information
数据来源 国际轨道数据
星历时间: 2026-09-11T16:28:16+0800
12小时前
查看轨道信息
半长轴: 6843.663km
偏心率: 0.0002044
轨道倾角: 97.284°
近地点辐角 108.905°
升交点赤经 35.294°
平近点角 251.242°
近地点: 464.127km
远地点: 466.925km
周期: 93.906分钟
每日圈数: 15.33451
Detailed Information
固有亮度:
5
最大亮度:
2.5
卫星平台:
Starlink V1.0
覆盖范围:
全球
运营商:
太空探索技术公司
运营商所在国:
美国
制造商(研发单位):
太空探索技术公司
制造商所在国:
美国
使用方式:
暂无
Satellite Introduction
Starlink 计划是 SpaceX 推出的全球卫星互联网项目,通过发射低轨道卫星,为全球尤其是偏远地区提供高速、低延迟的互联网服务。自 2019 年起,Starlink 已部署数千颗卫星,旨在缩小全球数字鸿沟,推动互联网普及。该项目还为军事、航空等行业提供通信支持,带来广泛经济效益。
2D Orbit Map
3D Orbit Map
Orbit Altitude Analysis Chart
Orbit Inclination Analysis Chart
Orbit Comprehensive Analysis Chart
View Comprehensive Chart
Conjunction Data List
Event ID Objects TCA Miss Dist (km) Collision Risk Probability Collision Risk Index (CRI) Action
CDM_260913-174806-803006-839521
2026-09-13T
17:48:56+0000
2.391 km
极远距离
1.926426E-6 低风险 0.41
CDM_260912-111004-521206-839521
2026-09-12T
11:10:39+0000
2.734 km
极远距离
1.509505E-6 低风险 0.39
CDM_260906-194305-172506-839521
2026-09-06T
19:43:59+0000
2.754 km
极远距离
1.488961E-6 低风险 0.38
CDM_260914-025205-389806-839521
2026-09-14T
02:52:48+0000
2.774 km
极远距离
1.465012E-6 低风险 0.38
CDM_260913-161406-803006-839521
2026-09-13T
16:14:58+0000
2.944 km
极远距离
1.381801E-6 低风险 0.38
CDM_260913-203106-624806-839521
2026-09-13T
20:31:51+0000
2.630 km
极远距离
1.371007E-6 低风险 0.38
CDM_260912-063705-248906-839521
2026-09-12T
06:37:46+0000
2.789 km
极远距离
1.31455E-6 低风险 0.37
CDM_260913-232004-867206-839521
2026-09-13T
23:20:42+0000
2.965 km
极远距离
1.157924E-6 低风险 0.36
CDM_260905-222605-944206-839522
TSAT-1A (59442)
2026-09-05T
22:26:40+0000
2.761 km
极远距离
9.530243E-7 极低风险 0.35
Miss Distance Evolution Trend with All Objects
Collision Probability Evolution Trend with All Objects